FW5717 Weather Reports


time (UTC)temp
C
wind
direction
speed
KPH
gust
KPH
rain 1hr
cm
rain 24hr
cm
rain mn
cm
humidity
%
barometer
mb
20260502163033 17 0.0 0.0 0.00 0.00 0.00 25 1019.9
20260502161534 16 0.0 0.0 0.00 0.00 0.00 29 1019.9
20260502151530 10 0.0 0.0 0.00 0.00 0.00 47 1020.0
20260502123030 3 0.0 0.0 0.00 0.00 0.00 55 1019.7
20260502121535 3 0.0 0.0 0.00 0.00 0.00 53 1019.8
20260502114531 5 0.0 0.0 0.00 0.00 0.00 53 1019.7
20260502113036 5 0.0 0.0 0.00 0.00 0.00 52 1019.8
20260502111530 5 0.0 0.0 0.00 0.00 0.00 50 1019.7
20260502110034 6 0.0 0.0 0.00 0.00 0.00 48 1019.8
20260502104531 6 0.0 0.0 0.00 0.00 0.00 45 1019.8
20260502103056 7 0.0 0.0 0.00 0.00 0.00 44 1019.7
20260502101547 7 0.0 0.0 0.00 0.00 0.00 42 1019.5
20260502091530 6 0.0 0.0 0.00 0.00 0.00 50 1019.4
20260502071535 7 0.0 0.0 0.00 0.00 0.00 44 1019.6
20260502070033 7 0.0 0.0 0.00 0.00 0.00 52 1019.6
20260502064537 7 0.0 0.0 0.00 0.00 0.00 53 1019.6
20260502063044 7 0.0 0.0 0.00 0.00 0.00 53 1019.5
20260502061534 7 0.0 0.0 0.00 0.00 0.00 54 1019.6
20260502060034 7 0.0 0.0 0.00 0.00 0.00 53 1019.5
20260502054549 7 0.0 0.0 0.00 0.00 0.00 53 1019.6
20260502053037 7 0.0 0.0 0.00 0.00 0.00 56 1019.5
20260502051534 8 0.0 0.0 0.00 0.00 0.00 53 1019.5
20260502050030 8 0.0 0.0 0.00 0.00 0.00 51 1019.5
20260502044535 8 0.0 0.0 0.00 0.00 0.00 51 1019.4
20260502043034 8 0.0 0.0 0.00 0.00 0.00 51 1019.4
20260502041537 9 0.0 0.0 0.00 0.00 0.00 50 1019.4
20260502040033 10 0.0 0.0 0.00 0.00 0.00 47 1019.2
20260502034530 11 0.0 0.0 0.00 0.00 0.00 44 1019.0
20260502033040 11 0.0 0.0 0.00 0.00 0.00 40 1018.9
20260502031535 12 0.0 0.0 0.00 0.00 0.00 37 1018.7
20260502030043 13 0.0 0.0 0.00 0.00 0.00 36 1018.5
20260502024534 14 0.0 0.0 0.00 0.00 0.00 33 1018.2
20260502023030 15 0.0 0.0 0.00 0.00 0.00 34 1018.1
20260502021531 16 0.0 0.0 0.00 0.00 0.00 32 1017.9
20260502020030 16 0.0 0.0 0.00 0.00 0.00 31 1017.8
20260502014536 16 0.0 0.0 0.00 0.00 0.00 31 1017.5
20260502013033 17 0.0 0.0 0.00 0.00 0.00 30 1017.4
20260502011532 17 0.0 0.0 0.00 0.00 0.00 29 1017.4
20260502010030 17 0.0 0.0 0.00 0.00 0.00 29 1017.4
20260502004532 17 0.0 0.0 0.00 0.00 0.00 28 1017.4
20260502003031 18 0.0 0.0 0.00 0.00 0.00 28 1017.4
20260502001534 18 0.0 0.0 0.00 0.00 0.00 28 1017.4
20260502000033 19 0.0 0.0 0.00 0.00 0.00 27 1017.6
20260501234534 19 0.0 0.0 0.00 0.00 0.00 26 1017.5
20260501233046 20 0.0 0.0 0.00 0.00 0.00 24 1017.6
20260501231535 20 0.0 0.0 0.00 0.00 0.00 25 1017.6
20260501230034 20 0.0 0.0 0.00 0.00 0.00 23 1017.7
20260501224535 21 0.0 0.0 0.00 0.00 0.00 23 1017.6
20260501223039 21 0.0 0.0 0.00 0.00 0.00 24 1017.8
20260501221533 21 0.0 0.0 0.00 0.00 0.00 22 1017.9
20260501220035 21 0.0 0.0 0.00 0.00 0.00 22 1018.1
20260501214535 21 0.0 0.0 0.00 0.00 0.00 22 1018.2
20260501213033 21 0.0 0.0 0.00 0.00 0.00 21 1018.3
20260501211547 20 0.0 0.0 0.00 0.00 0.00 22 1018.4
20260501210038 21 0.0 0.0 0.00 0.00 0.00 21 1018.4
20260501204532 21 0.0 0.0 0.00 0.00 0.00 21 1018.6
20260501203033 21 0.0 0.0 0.00 0.00 0.00 18 1018.4
20260501201533 21 0.0 0.0 0.00 0.00 0.00 18 1018.7
20260501200033 21 0.0 0.0 0.00 0.00 0.00 18 1018.7
20260501194533 20 0.0 0.0 0.00 0.00 0.00 20 1018.6
20260501193034 20 0.0 0.0 0.00 0.00 0.00 20 1018.8
20260501191533 20 0.0 0.0 0.00 0.00 0.00 19 1018.9
20260501190030 20 0.0 0.0 0.00 0.00 0.00 20 1018.9
20260501184529 20 0.0 0.0 0.00 0.00 0.00 21 1019.1
20260501183031 20 0.0 0.0 0.00 0.00 0.00 22 1019.2
20260501181533 18 0.0 0.0 0.00 0.00 0.00 24 1019.4
20260501180036 17 0.0 0.0 0.00 0.00 0.00 24 1019.5
20260501174533 16 0.0 0.0 0.00 0.00 0.00 25 1019.5
20260501173035 16 0.0 0.0 0.00 0.00 0.00 27 1019.7